KE7YUP Weather Reports


Display with metric or nautical units.
time (UTC)temp
F
wind
direction
speed
MPH
gust
MPH
rain 1hr
in
rain 24hr
in
rain mn
in
humidity
%
barometer
mb
20220516124016 60 256 5.0 7.0 0.00 0.00 0.00 43 1015.6
20220516123016 62 52 3.0 4.0 0.00 0.00 0.00 43 1016.0
20220516122015 61 31 4.0 6.0 0.00 0.00 0.00 45 1015.6
20220516121015 60 42 4.0 5.0 0.00 0.00 0.00 44 1016.0
20220516120016 60 66 3.0 4.0 0.00 0.00 0.00 43 1015.9
20220516115017 60 70 2.0 3.0 0.00 0.00 0.00 42 1015.8
20220516114017 58 49 3.0 3.0 0.00 0.00 0.00 45 1015.7
20220516113016 59 295 1.0 2.0 0.00 0.00 0.00 44 1015.8
20220516112016 56 289 5.0 6.0 0.00 0.00 0.00 46 1015.4
20220516111015 54 284 6.0 7.0 0.00 0.00 0.00 49 1015.0
20220516110015 53 287 9.0 10.0 0.00 0.00 0.00 49 1014.9
20220516105015 54 242 10.0 11.0 0.00 0.00 0.00 45 1014.9
20220516104016 57 238 3.0 3.0 0.00 0.00 0.00 44 1015.0
20220516103016 58 258 2.0 2.0 0.00 0.00 0.00 44 1015.2
20220516102016 61 218 1.0 1.0 0.00 0.00 0.00 39 1015.9
20220516101015 62 114 2.0 3.0 0.00 0.00 0.00 37 1016.2
20220516100015 61 75 2.0 2.0 0.00 0.00 0.00 39 1015.5
20220516095015 61 0.0 0.0 0.00 0.00 0.00 36 1015.3
20220516094015 62 0.0 0.0 0.00 0.00 0.00 38 1015.6
20220516093015 63 351 1.0 2.0 0.00 0.00 0.00 35 1015.9
20220516092016 61 288 2.0 3.0 0.00 0.00 0.00 39 1015.6
20220516091015 61 293 2.0 4.0 0.00 0.00 0.00 37 1015.5
20220516090017 62 269 3.0 3.0 0.00 0.00 0.00 36 1015.9
20220516085016 61 283 6.0 8.0 0.00 0.00 0.00 39 1015.9
20220516084015 60 290 8.0 9.0 0.00 0.00 0.00 41 1015.8
20220516083016 60 288 5.0 8.0 0.00 0.00 0.00 41 1015.9
20220516082017 59 278 8.0 9.0 0.00 0.00 0.00 42 1015.5
20220516081016 59 250 6.0 7.0 0.00 0.00 0.00 43 1015.5
20220516080016 57 288 7.0 8.0 0.00 0.00 0.00 46 1014.9
20220516075016 58 256 8.0 10.0 0.00 0.00 0.00 43 1015.7
20220516074017 58 259 8.0 9.0 0.00 0.00 0.00 46 1015.5
20220516073017 58 251 6.0 7.0 0.00 0.00 0.00 45 1015.2
20220516072018 59 240 5.0 8.0 0.00 0.00 0.00 44 1015.8
20220516071017 62 226 4.0 4.0 0.00 0.00 0.00 41 1016.2
20220516070017 65 261 2.0 3.0 0.00 0.00 0.00 38 1016.5
20220516065019 67 318 1.0 1.0 0.00 0.00 0.00 36 1016.7
20220516064018 66 319 1.0 1.0 0.00 0.00 0.00 37 1016.7
20220516063017 65 0.0 0.0 0.00 0.00 0.00 38 1016.6
20220516062016 65 217 1.0 2.0 0.00 0.00 0.00 39 1016.3
20220516061018 65 0.0 0.0 0.00 0.00 0.00 39 1016.2
20220516060016 66 0.0 0.0 0.00 0.00 0.00 37 1016.3
20220516055016 67 295 2.0 2.0 0.00 0.00 0.00 37 1016.4
20220516054017 68 0.0 1.0 0.00 0.00 0.00 36 1016.5
20220516053016 65 250 0.0 1.0 0.00 0.00 0.00 38 1016.1
20220516052017 67 0.0 1.0 0.00 0.00 0.00 38 1016.5
20220516051016 68 272 2.0 2.0 0.00 0.00 0.00 37 1017.0
20220516050016 70 0.0 0.0 0.00 0.00 0.00 34 1017.4
20220516045017 70 0.0 0.0 0.00 0.00 0.00 34 1017.4
20220516044016 69 290 1.0 1.0 0.00 0.00 0.00 34 1017.2
20220516043015 69 283 1.0 2.0 0.00 0.00 0.00 34 1017.2
20220516042016 70 276 2.0 3.0 0.00 0.00 0.00 34 1017.3
20220516041018 71 290 4.0 7.0 0.00 0.00 0.00 34 1016.9
20220516040019 70 292 5.0 7.0 0.00 0.00 0.00 35 1016.9
20220516035016 70 290 4.0 5.0 0.00 0.00 0.00 36 1016.8
20220516034019 71 258 4.0 4.0 0.00 0.00 0.00 35 1016.8
20220516033016 71 285 1.0 3.0 0.00 0.00 0.00 35 1016.4
20220516032017 72 203 2.0 3.0 0.00 0.00 0.00 35 1016.4
20220516031017 73 2 2.0 4.0 0.00 0.00 0.00 32 1016.4
20220516030015 73 300 2.0 4.0 0.00 0.00 0.00 35 1016.5
20220516025015 73 300 3.0 5.0 0.00 0.00 0.00 34 1016.9
20220516024017 74 308 3.0 5.0 0.00 0.00 0.00 33 1017.1
20220516023016 76 296 3.0 7.0 0.00 0.00 0.00 30 1017.7
20220516022016 77 314 8.0 11.0 0.00 0.00 0.00 29 1017.5
20220516021015 78 321 6.0 10.0 0.00 0.00 0.00 27 1017.0
20220516020017 78 320 5.0 6.0 0.00 0.00 0.00 26 1016.6
20220516015015 79 319 4.0 6.0 0.00 0.00 0.00 25 1016.7
20220516014016 80 326 5.0 6.0 0.00 0.00 0.00 24 1016.9
20220516013016 81 351 7.0 8.0 0.00 0.00 0.00 22 1016.9
20220516012015 81 351 6.0 9.0 0.00 0.00 0.00 21 1016.8
20220516011015 81 31 7.0 10.0 0.00 0.00 0.00 21 1016.6
20220516010016 82 66 4.0 6.0 0.00 0.00 0.00 17 1016.6
20220516005016 82 96 4.0 6.0 0.00 0.00 0.00 17 1016.7
20220516004016 82 180 3.0 9.0 0.00 0.00 0.00 17 1016.5
20220516003016 83 93 5.0 8.0 0.00 0.00 0.00 17 1016.7
20220516002016 82 122 4.0 7.0 0.00 0.00 0.00 17 1016.8
20220516001016 83 62 3.0 7.0 0.00 0.00 0.00 17 1017.7
20220516000015 82 137 3.0 6.0 0.00 0.00 0.00 17 1017.5
20220515235015 83 98 3.0 7.0 0.00 0.00 0.00 18 1017.5
20220515234015 82 64 5.0 8.0 0.00 0.00 0.00 18 1017.7
20220515233016 82 63 6.0 8.0 0.00 0.00 0.00 19 1017.6
20220515232017 82 120 8.0 13.0 0.00 0.00 0.00 20 1017.6
20220515231016 82 287 3.0 9.0 0.00 0.00 0.00 20 1018.0
20220515230015 82 66 4.0 8.0 0.00 0.00 0.00 21 1018.2
20220515225016 82 99 5.0 10.0 0.00 0.00 0.00 21 1018.2
20220515224015 81 117 6.0 9.0 0.00 0.00 0.00 22 1018.4
20220515223015 81 85 9.0 10.0 0.00 0.00 0.00 20 1018.7
20220515222017 81 95 2.0 8.0 0.00 0.00 0.00 22 1018.9
20220515221016 80 74 6.0 9.0 0.00 0.00 0.00 23 1019.1
20220515220016 80 84 7.0 10.0 0.00 0.00 0.00 22 1019.5
20220515215016 80 70 3.0 4.0 0.00 0.00 0.00 21 1019.6
20220515214018 81 44 6.0 8.0 0.00 0.00 0.00 21 1020.2
20220515213017 81 78 3.0 6.0 0.00 0.00 0.00 21 1020.5
20220515212018 81 65 4.0 5.0 0.00 0.00 0.00 21 1020.8
20220515211018 80 69 7.0 9.0 0.00 0.00 0.00 22 1021.3
20220515210017 80 62 4.0 8.0 0.00 0.00 0.00 21 1021.6
20220515205017 81 124 6.0 12.0 0.00 0.00 0.00 22 1021.9
20220515204017 81 116 7.0 10.0 0.00 0.00 0.00 21 1022.4
20220515203018 80 95 2.0 4.0 0.00 0.00 0.00 22 1022.6
20220515202017 80 107 6.0 9.0 0.00 0.00 0.00 24 1022.8
20220515201017 79 52 5.0 7.0 0.00 0.00 0.00 22 1022.6
20220515200018 78 44 2.0 4.0 0.00 0.00 0.00 22 1022.4
20220515195018 80 98 6.0 8.0 0.00 0.00 0.00 21 1022.9
20220515194017 78 140 6.0 8.0 0.00 0.00 0.00 23 1022.8
20220515193017 77 92 2.0 7.0 0.00 0.00 0.00 22 1022.9
20220515192017 79 103 2.0 7.0 0.00 0.00 0.00 20 1023.3
20220515191017 78 91 0.0 4.0 0.00 0.00 0.00 22 1023.3
20220515190017 77 136 1.0 7.0 0.00 0.00 0.00 23 1023.4
20220515185017 76 54 2.0 4.0 0.00 0.00 0.00 24 1023.5
20220515184017 76 0.0 1.0 0.00 0.00 0.00 26 1023.8
20220515183016 76 85 2.0 6.0 0.00 0.00 0.00 28 1024.1
20220515182018 74 120 1.0 3.0 0.00 0.00 0.00 32 1024.0
20220515181017 73 89 2.0 7.0 0.00 0.00 0.00 32 1023.8
20220515180017 73 127 1.0 3.0 0.00 0.00 0.00 35 1024.1
20220515175018 71 66 2.0 8.0 0.00 0.00 0.00 37 1023.8
20220515174019 71 70 4.0 9.0 0.00 0.00 0.00 37 1024.2
20220515173017 71 124 2.0 7.0 0.00 0.00 0.00 38 1024.1
20220515172154 72 68 4.0 5.0 0.00 0.00 0.00 37 1024.5
20220515171949 72 68 3.0 5.0 0.00 0.00 0.00 37 1024.7
20220515165923 72 128 5.0 5.0 0.00 0.00 0.00 35 1024.7
20220515164917 73 84 3.0 4.0 0.00 0.00 0.00 35 1025.2
20220515163916 71 95 1.0 3.0 0.00 0.00 0.00 35 1025.3
20220515162916 71 0.0 1.0 0.00 0.00 0.00 35 1025.0
20220515161916 70 146 3.0 4.0 0.00 0.00 0.00 37 1025.1
20220515160916 68 296 0.0 1.0 0.00 0.00 0.00 40 1025.3
20220515155917 68 28 2.0 3.0 0.00 0.00 0.00 39 1025.5
20220515154916 67 166 1.0 2.0 0.00 0.00 0.00 41 1025.4
20220515153916 67 81 3.0 3.0 0.00 0.00 0.00 41 1025.4
20220515152916 65 91 4.0 5.0 0.00 0.00 0.00 45 1025.2
20220515151916 64 81 5.0 7.0 0.00 0.00 0.00 45 1025.1
20220515150916 64 77 2.0 4.0 0.00 0.00 0.00 45 1025.2
20220515145916 64 73 2.0 4.0 0.00 0.00 0.00 46 1025.3
20220515144916 65 80 4.0 6.0 0.00 0.00 0.00 44 1025.2
20220515143917 66 73 3.0 4.0 0.00 0.00 0.00 42 1025.6
20220515142917 66 140 0.0 1.0 0.00 0.00 0.00 43 1025.6
20220515141916 65 0.0 0.0 0.00 0.00 0.00 43 1025.7
20220515140917 62 0.0 0.0 0.00 0.00 0.00 48 1024.9
20220515135918 59 240 1.0 2.0 0.00 0.00 0.00 51 1024.5
20220515134916 58 270 2.0 4.0 0.00 0.00 0.00 53 1024.2
20220515133916 57 242 2.0 3.0 0.00 0.00 0.00 54 1024.3
20220515132916 56 285 4.0 7.0 0.00 0.00 0.00 55 1024.3
20220515131916 55 267 6.0 8.0 0.00 0.00 0.00 57 1024.4
20220515130916 54 254 5.0 6.0 0.00 0.00 0.00 58 1024.3
20220515125917 53 252 6.0 8.0 0.00 0.00 0.00 59 1024.2
20220515124916 53 288 3.0 4.0 0.00 0.00 0.00 59 1024.2